Tracking 30970 objects as of 3-Jul-2025
HD Live streaming from Space Station
objects crossing your sky now

MORDOVIA-IOT

Track MORDOVIA-IOT now!
10-day predictions


NORAD ID: 61765
Int'l Code: 2024-199AG
Perigee: 436.3 km
Apogee: 452.2 km
Inclination: 97.4 °
Period: 93.3 minutes
Semi major axis: 6815 km
RCS: Unknown
Launch date: November 4, 2024
Source: Commonwealth of Independent States (former USSR) (CIS)
Launch site: VOSTOCHNY COSMODROME (VOSTO)
Your satellite tracking list
Your tracking list is empty




NASA's NSSDC Master Catalog

Two Line Element Set (TLE):
1 61765U 24199AG  25183.93124938  .00030799  00000-0  69591-3 0  9999
2 61765  97.3505  54.1746 0011652  91.6260 268.6322 15.43060357 80632
Source of the keplerian elements: AFSPC